Simultaneous Nadir Overpasses (SNOs) Predictions

Prediction of SNOs between METOP-A and NPP Satellite Orbit:

Table of predicted SNOs for the next 14.0 days since TLE Epoch: 11/28/2015
Index Date (METOP-A) Time (METOP-A) Lat,Lon (METOP-A) SZA (METOP-A ) Date (NPP) Time (NPP) Lat,Lon (NPP) SZA (NPP ) Distance(km) Time Diff (sec)
1 11/28/2015 20:25:39 -72.91, 45.44 85.78 11/28/2015 20:26:49 -72.89, 45.50 85.80 2.84 70
2 11/28/2015 21:16:21 72.77,-147.51 94.11 11/28/2015 21:17:34 72.85,-147.11 94.17 16.30 73
3 11/28/2015 22:07:04 -72.74, 19.74 85.93 11/28/2015 22:08:17 -72.80, 20.33 85.89 20.42 73
4 11/28/2015 22:57:48 72.50,-173.41 93.86 11/28/2015 22:58:58 72.56,-171.87 93.87 51.86 70
5 11/28/2015 23:48:32 -72.41, -6.25 86.22 11/28/2015 23:49:41 -72.50, -4.44 86.19 61.55 69
6 11/29/2015 00:39:16 72.17, 160.61 93.57 11/29/2015 00:40:21 72.20, 163.45 93.52 96.71 65




NCC Satellite Simultaneous Nadir Overpasses (SNOs) Prediction Service
